Preview of NWS' New Version of Forecast
This preview is not operational and should not be used for support decisions.

Regional Weather Roundup (RWR)

Issued by National Weather Service (NWS)

                            
000
ASUS43 KBIS 252202
RWRND 

NORTH DAKOTA REGIONAL WEATHER ROUNDUP
NATIONAL WEATHER SERVICE BISMARCK ND
500 PM CDT THU APR 25 2019

NOTE: "FAIR" INDICATES FEW OR NO CLOUDS BELOW 12,000 FEET WITH NO
SIGNIFICANT WEATHER AND/OR OBSTRUCTIONS TO VISIBILITY.


NDZ001>003-009>011-017-252300-
NORTHWEST NORTH DAKOTA
  
CITY           SKY/WX    TMP DP  RH WIND       PRES   REMARKS
WILLISTON      SUNNY     57  11  16 NW21G36   30.15F                  
MINOT          MOSUNNY   56  20  24 NW31G45   30.06R                  
MINOT AFB      MOSUNNY   54  22  28 NW28G37   30.04R                  
$$
 
NDZ018>021-031>035-040>046-252300-
SOUTHWEST NORTH DAKOTA
  
CITY           SKY/WX    TMP DP  RH WIND       PRES   REMARKS
BISMARCK       SUNNY     59  12  15 NW26G41   30.09S                  
DICKINSON      SUNNY     56  11  16 NW28G43   30.12F                  
GARRISON         N/A     55   8  15 NW32G48   30.07S                  
HETTINGER ARPT SUNNY     56  18  22 NW23G36   30.15F                  
$$
 
NDZ004>008-012>016-024-026-027-054-252300-
NORTHEAST NORTH DAKOTA
  
CITY           SKY/WX    TMP DP  RH WIND       PRES   REMARKS
GRAND FORKS    MOSUNNY   59  23  25 NW24G37   29.90S                  
GRND FRKS AFB  MOSUNNY   59  18  20 NW23G32   29.93S                  
DEVILS LAKE    PTSUNNY   54  23  30 NW32G43   29.95R                  
$$
 
NDZ022-023-025-028>030-036>039-047>053-252300-
SOUTHEAST NORTH DAKOTA
  
CITY           SKY/WX    TMP DP  RH WIND       PRES   REMARKS
FARGO          SUNNY     61  19  19 NW29G40   29.94R                  
JAMESTOWN      SUNNY     58  17  20 NW28G44   29.99R                  
$$